Tracking 30986 objects as of 10-Jul-2025
HD Live streaming from Space Station
objects crossing your sky now

SL-14 DEB

Track SL-14 DEB now!
10-day predictions


NORAD ID: 26003
Int'l Code: 1991-068N
Perigee: 1,310.2 km
Apogee: 1,479.5 km
Inclination: 82.7 °
Period: 113.5 minutes
Semi major axis: 7765 km
RCS: 0.0354 m2 (small)
Launch date: September 28, 1991
Source: Commonwealth of Independent States (former USSR) (CIS)
Launch site: PLESETSK MISSILE AND SPACE COMPLEX (PKMTR)

Note: This is SATELLITE DEBRIS
Your satellite tracking list
Your tracking list is empty




NASA's NSSDC Master Catalog

Two Line Element Set (TLE):
1 26003U 91068N   25190.75672046  .00001550  00000-0  77215-2 0  9994
2 26003  82.7203  17.9089 0109005  30.7596 347.7458 12.68575519181258
Source of the keplerian elements: AFSPC